This is the latest recevied weather packets stored in our database for station/object WP3OF-2. If no packets are shown the sender has not sent any weather packets the latest 10 day(s).
| Time | Temp. | Humidity | Pressure | Rain* | Wind** | Luminosity | Snow |
|---|---|---|---|---|---|---|---|
| 1788646989 | 21.67° C | 99% | 1023.4 hPa | 0 mm | - | 10 W/m² | - |
| 1788646686 | 21.67° C | 99% | 1023.7 hPa | 0 mm | - | 15 W/m² | - |
| 1788646382 | 22.22° C | 99% | 1023.7 hPa | 0 mm | - | 18 W/m² | - |
| 1788646078 | 22.22° C | 99% | 1023.7 hPa | 0 mm | - | 21 W/m² | - |
| 1788645774 | 22.22° C | 99% | 1023.7 hPa | 0 mm | - | 24 W/m² | - |
| 1788645473 | 22.22° C | 99% | 1023.7 hPa | 0 mm | - | 28 W/m² | - |
| 1788645169 | 22.22° C | 99% | 1023.4 hPa | 0 mm | - | 30 W/m² | - |
| 1788644864 | 22.78° C | 99% | 1023.7 hPa | 0 mm | - | 32 W/m² | - |
| 1788644560 | 22.78° C | 99% | 1024.1 hPa | 0 mm | - | 29 W/m² | - |
| 1788644255 | 22.22° C | 99% | 1024.1 hPa | 1.27 mm | - | 39 W/m² | - |
| 1788643951 | 22.22° C | 99% | 1023.7 hPa | 1.27 mm | - | 44 W/m² | - |
| 1788643646 | 22.78° C | 99% | 1024.1 hPa | 0 mm | - | 45 W/m² | - |
| 1788643345 | 22.78° C | 99% | 1024.1 hPa | 1.78 mm | - | 52 W/m² | - |
| 1788643039 | 22.78° C | 99% | 1024.1 hPa | 3.05 mm | - | 38 W/m² | - |
| 1788642735 | 22.78° C | 99% | 1023.7 hPa | 11.94 mm | - | 41 W/m² | - |
| 1788642432 | 22.78° C | 99% | 1023.7 hPa | 18.03 mm | - | 36 W/m² | - |
| 1788642126 | 22.78° C | 99% | 1023.7 hPa | 11.94 mm | - | 20 W/m² | - |
| 1788641824 | 23.33° C | 99% | 1023.7 hPa | 3.05 mm | - | 34 W/m² | - |
| 1788641519 | 23.33° C | 99% | 1023.7 hPa | 3.05 mm | - | 24 W/m² | - |
| 1788641218 | 23.89° C | 99% | 1023.7 hPa | 6.6 mm | - | 10 W/m² | - |
| 1788640915 | 23.89° C | 99% | 1023.7 hPa | 6.1 mm | - | 16 W/m² | - |
| 1788640608 | 23.89° C | 99% | 1023.7 hPa | 0 mm | - | 78 W/m² | - |
| 1788640304 | 23.89° C | 98% | 1023.7 hPa | 0 mm | - | 125 W/m² | - |
| 1788640000 | 23.89° C | 99% | 1023.4 hPa | 0 mm | - | 194 W/m² | - |
| 1788639695 | 23.89° C | 99% | 1023.4 hPa | 0 mm | - | 109 W/m² | - |
* Rain latest hour (hover to see other rain measurements)
** Current wind speed in m/s (hover to see current wind gust speed)